OSCAR 7 (AO-7) 1 07530U 74089B 25354.96621619 -.00000042 00000+0 25177-4 0 9994 2 07530 101.9964 1.3203 0012388 111.1308 3.8195 12.53694403338189 PHASE 3B (AO-10) 1 14129U 83058B 25354.16967095 -.00000230 00000+0 00000+0 0 9997 2 14129 26.0401 249.9099 6064431 65.7090 344.6415 2.05874410291803 UOSAT 2 (UO-11) 1 14781U 84021B 25354.91834211 .00001189 00000+0 12842-3 0 9992 2 14781 97.7822 317.8201 0009059 59.3750 300.8360 14.90166137230577 LUSAT (LO-19) 1 20442U 90005G 25354.91899175 .00000098 00000+0 51819-4 0 9998 2 20442 98.8955 6.7162 0011769 14.2683 345.8831 14.34047782876843 EYESAT A (AO-27) 1 22825U 93061C 25354.90037642 .00000092 00000+0 52025-4 0 9996 2 22825 98.7134 57.1867 0007325 262.2331 97.8020 14.30879499681503 ITAMSAT (IO-26) 1 22826U 93061D 25354.72286262 .00000105 00000+0 56706-4 0 9996 2 22826 98.7083 56.9088 0007938 244.5170 115.5192 14.31300481681782 RADIO ROSTO (RS-15) 1 23439U 94085A 25354.93961117 -.00000058 00000+0 -45408-3 0 9991 2 23439 64.8153 231.4901 0150024 36.9624 324.1526 11.27582896275806 JAS-2 (FO-29) 1 24278U 96046B 25354.90608802 -.00000027 00000+0 90775-5 0 9992 2 24278 98.5458 222.9452 0349519 198.7630 160.0355 13.53262937449058 TECHSAT 1B (GO-32) 1 25397U 98043D 25354.50401866 .00000040 00000+0 37448-4 0 9992 2 25397 98.9927 337.8955 0001814 45.0313 315.1012 14.24379082425893 ISS (ZARYA) 1 25544U 98067A 25354.66673768 .00007293 00000+0 13711-3 0 9994 2 25544 51.6321 103.2234 0003163 277.4707 82.5922 15.49686708544085 PCSAT (NO-44) 1 26931U 01043C 25354.69912530 .00000117 00000+0 74578-4 0 9996 2 26931 67.0515 345.8947 0007416 269.5347 90.4905 14.31858897264891 SAUDISAT 1C (SO-50) 1 27607U 02058C 25354.90083410 .00001404 00000+0 18540-3 0 9990 2 27607 64.5532 320.3742 0072587 295.0420 64.3162 14.82421796238022 CUTE-1 (CO-55) 1 27844U 03031E 25354.88014261 .00000268 00000+0 13540-3 0 9992 2 27844 98.6761 0.6781 0009353 349.9146 10.1843 14.24185723166290 CUBESAT XI-IV (CO-57) 1 27848U 03031J 25354.92090424 .00000217 00000+0 11455-3 0 9993 2 27848 98.6791 0.5739 0009581 7.9689 352.1640 14.23492840166019 MOZHAETS 4 (RS-22) 1 27939U 03042A 25354.94737471 .00001104 00000+0 18005-3 0 9992 2 27939 98.3358 169.3653 0012371 111.4108 43.8021 14.72991424189303 CUBESAT XI-V 1 28895U 05043F 25354.66714806 .00001175 00000+0 19558-3 0 9995 2 28895 98.2729 141.8793 0015136 54.6634 305.5985 14.71926340 75484 CUTE-1.7+APD II (CO-65) 1 32785U 08021C 25351.68477250 .00005656 00000+0 38073-3 0 9996 2 32785 97.8081 324.8433 0007829 290.5969 69.4418 15.07103756957832 SEEDS II (CO-66) 1 32791U 08021J 25354.90657985 .00012320 00000+0 48895-3 0 9995 2 32791 97.7446 340.3339 0002290 169.9965 190.1318 15.25504942960043 YUBILEINY (RS-30) 1 32953U 08025A 25354.91938806 .00000016 00000+0 46605-4 0 9991 2 32953 82.5029 106.3361 0018713 342.9104 17.1344 12.43172007797542 KKS-1 (KISEKI) 1 33499U 09002H 25354.90920083 .00001184 00000+0 15445-3 0 9994 2 33499 98.1184 269.6248 0008686 139.6575 220.5284 14.82459882909778 SWISSCUBE 1 35932U 09051B 25354.64161194 .00000889 00000+0 18714-3 0 9996 2 35932 98.4147 254.3640 0007948 53.3074 306.8855 14.61977830863065 BEESAT-1 1 35933U 09051C 25354.97301760 .00000766 00000+0 16509-3 0 9992 2 35933 98.4077 254.6970 0006495 65.3103 294.8773 14.61295870863151 ITUPSAT1 1 35935U 09051E 25354.67251551 .00000678 00000+0 15127-3 0 9990 2 35935 98.4167 253.7630 0008752 73.8851 286.3311 14.60048936862687 XIWANG-1 (HOPE-1) 1 36122U 09072B 25354.94958578 -.00000380 00000+0 -87889-3 0 9991 2 36122 100.3782 306.8357 0006974 283.1824 76.8511 13.16431104769557 O/OREOS (USA 219) 1 37224U 10062C 25354.80257321 .00001868 00000+0 18663-3 0 9993 2 37224 71.9705 124.1273 0013551 39.6237 320.5921 14.92716607 90019 JUGNU 1 37839U 11058B 25354.17052898 .00000413 00000+0 76002-4 0 9990 2 37839 19.9622 315.9655 0018384 259.0452 208.1635 14.13699442733669 SRMSAT 1 37841U 11058D 25354.88894002 .00000379 00000+0 61949-4 0 9997 2 37841 19.9725 58.6302 0011961 42.8733 130.9266 14.11513978732590 STRAND-1 1 39090U 13009E 25354.74659386 .00000242 00000+0 96043-4 0 9994 2 39090 98.3822 174.4328 0009489 49.3654 310.8356 14.37011213671435 ZACUBE-1 (TSHEPISOSAT) 1 39417U 13066B 25351.39749824 .00003280 00000+0 27002-3 0 9998 2 39417 97.8056 307.9496 0042001 132.1904 228.2897 14.99124350653477 GOMX-1 1 39430U 13066Q 25354.87320773 .00002064 00000+0 32081-3 0 9999 2 39430 97.6582 201.4900 0129182 290.3130 68.4233 14.68622260643731 CUBEBUG-2 (LO-74) 1 39440U 13066AA 25351.56788106 .00003439 00000+0 33426-3 0 9992 2 39440 97.8708 295.2332 0058016 269.4523 90.0047 14.92015584649893 FUNCUBE-1 (AO-73) 1 39444U 13066AE 25354.89378081 .00005378 00000+0 36566-3 0 9994 2 39444 97.8080 318.2728 0041190 89.3089 271.2857 15.06077492652793 UWE-3 1 39446U 13066AG 25354.78555617 .00002126 00000+0 19443-3 0 9999 2 39446 97.8487 305.1413 0050185 192.4697 167.5285 14.95160797650908 UNISAT-6 1 40012U 14033C 25354.88949119 .00002350 00000+0 26482-3 0 9990 2 40012 97.7622 146.1612 0045159 296.7249 62.9349 14.86850174619650 DUCHIFAT-1 1 40021U 14033M 25354.63302552 .00025353 00000+0 61228-3 0 9992 2 40021 98.0768 27.2741 0006720 9.5760 350.5612 15.41157086628064 QB50P1 1 40025U 14033R 25354.87839906 .00006709 00000+0 36692-3 0 9991 2 40025 98.0963 348.9906 0011003 110.7157 249.5253 15.14589330626007 LILACSAT-2 1 40908U 15049K 25354.89768133 .00010385 00000+0 22234-3 0 9996 2 40908 97.4898 20.5318 0008119 166.7794 193.3669 15.44949851568169 FOX-1A (AO-85) 1 40967U 15058D 25354.66304018 .00002696 00000+0 25250-3 0 9991 2 40967 64.7758 113.2733 0134049 126.9444 234.4034 14.89721263 86968 CAS-2T & KS-1Q 1 41847U 16066G 25354.93708901 .00000811 00000+0 12460-3 0 9994 2 41847 98.4028 67.5977 0342722 310.2638 46.9042 14.44148682479064 RADFXSAT (FOX-1B) 1 43017U 17073E 25354.13825460 .00006760 00000+0 32051-3 0 9993 2 43017 97.4936 220.1669 0159393 224.8218 134.0047 15.09005085438353 DIWATA-2B 1 43678U 18084H 25354.92682396 .00002555 00000+0 21346-3 0 9998 2 43678 98.1022 178.7189 0007637 25.8778 334.2825 14.99478112389499 ES'HAIL 2 1 43700U 18090A 25354.91304551 .00000167 00000+0 00000+0 0 9991 2 43700 0.0156 55.5894 0000998 237.0274 151.6201 1.00272458 25894 FOX-1CLIFF (AO-95) 1 43770U 18099N 25354.61671152 .00007303 00000+0 32215-3 0 9994 2 43770 97.4665 50.8412 0008216 253.7766 106.2567 15.22048137386011 ITASAT 1 43786U 18099AE 25354.68387116 .00005063 00000+0 26525-3 0 9990 2 43786 97.4313 44.8299 0011927 252.6187 107.3741 15.16179030385837 JY1SAT (JO-97) 1 43803U 18099AX 25354.74490706 .00009905 00000+0 37538-3 0 9992 2 43803 97.4410 52.5360 0006503 172.1278 188.0064 15.27073345386335 UWE-4 1 43880U 18111E 25354.71887497 .00016835 00000+0 50115-3 0 9992 2 43880 97.5868 271.4660 0007308 240.1126 119.9391 15.34759874383301 TIANYAN 01 1 44881U 19093C 25354.91488743 .00000915 00000+0 11036-3 0 9998 2 44881 97.7759 66.3641 0012724 318.6289 41.3962 14.86121688324931 RS-44 & BREEZE-KM R/B 1 44909U 19096E 25354.36315210 .00000018 00000+0 30629-4 0 9993 2 44909 82.5215 98.5434 0217320 202.2263 156.9309 12.79746140279479 SALSAT 1 46495U 20068K 25354.92279303 .00006142 00000+0 23848-3 0 9998 2 46495 97.8783 342.6369 0009624 197.0373 163.0542 15.26450855288130 XW-3 (CAS-9) 1 50466U 21131B 25354.91237432 .00000239 00000+0 87774-4 0 9999 2 50466 98.5056 83.2932 0003047 275.0928 84.9913 14.41121474209431 GREENCUBE (IO-117) 1 53109U 22080E 25354.35803142 -.00000003 00000+0 00000+0 0 9997 2 53109 70.1582 0.4316 0009105 326.3795 33.6286 6.42583282 80575 STRATOSAT-TK 1 (RS52S) 1 57167U 23091B 25354.26900453 .00276616 00000+0 13708-2 0 9997 2 57167 97.5189 67.3893 0005422 299.5642 60.5085 15.81255952138068 UMKA 1 (RS40S) 1 57172U 23091G 25354.91483427 .00004680 00000+0 23123-3 0 9995 2 57172 97.5329 49.3444 0014099 26.8625 333.3336 15.18268394136932 CUBESX-HSE 3 (RS42S) 1 57178U 23091N 25354.94289873 .00008648 00000+0 33877-3 0 9998 2 57178 97.5363 53.6961 0012142 9.0556 351.0899 15.25972165137197 MONITOR-3 (RS58S) 1 57180U 23091Q 25354.95634076 .00007158 00000+0 30166-3 0 9994 2 57180 97.5357 52.3788 0013057 13.3152 346.8427 15.23567280137119 MONITOR-4 (RS57S) 1 57182U 23091S 25354.94541648 .00006885 00000+0 28970-3 0 9993 2 57182 97.5351 52.3291 0013074 13.8718 346.2875 15.23637304137112 MONITOR-2 (RS39S) 1 57184U 23091U 25354.93460669 .00003474 00000+0 17992-3 0 9990 2 57184 97.5356 49.3563 0012160 19.6464 340.5235 15.16812784136917 SVYATOBOR 1 (RS60S) 1 57187U 23091X 25354.90333334 .00006521 00000+0 28066-3 0 9998 2 57187 97.5363 52.9414 0010220 7.1018 353.0361 15.22921143137147 VIZARD-METEO (RS38S) 1 57189U 23091Z 25354.94936061 .00010558 00000+0 37043-3 0 9990 2 57189 97.5355 56.4612 0008028 354.6980 5.4173 15.29589408137386 NANOZOND 1 (RS49S) 1 57190U 23091AA 25354.92582257 .00053711 00000+0 82058-3 0 9998 2 57190 97.5278 65.2024 0004228 326.5551 33.5435 15.54242402137973 POLYTECH-UNIVERSE 3 (R*) 1 57191U 23091AB 25354.91775262 .00003848 00000+0 19767-3 0 9991 2 57191 97.5328 48.8522 0017036 33.8760 326.3558 15.16979372136903 UTMN 2 (RS27S) 1 57203U 23091AP 25354.93257096 .00008692 00000+0 33136-3 0 9995 2 57203 97.5355 55.0960 0008843 358.8911 1.2307 15.26909159137298 KUZGTU 1 (RS47S) 1 57217U 23091AV 25354.93130928 .00007983 00000+0 32171-3 0 9994 2 57217 97.5336 52.9535 0012351 11.8439 348.3086 15.25047825137163 SONATE-2 1 59112U 24043Q 25354.61787845 .00019695 00000+0 41190-3 0 9993 2 59112 97.5335 131.1656 0009292 134.3401 225.8611 15.45471040100190 MESAT1 1 60209U 24125G 25354.55306914 .00022790 00000+0 45528-3 0 9999 2 60209 97.2514 204.9331 0014747 149.4882 210.7229 15.46704880 81812 OOV-CUBE (TUBSAT-30) 1 60240U 24128F 25354.87075153 .00002053 00000+0 16790-3 0 9999 2 60240 61.9946 126.8799 0058267 95.9014 264.8722 15.01654831 79323 COLIBRI-S (RS67S) 1 61746U 24199M 25354.94359597 .00013673 00000+0 34904-3 0 9991 2 61746 97.3251 222.8790 0009041 197.2513 162.8427 15.39568896109915 HORS 3 (RS81S) 1 61753U 24199U 25354.92094509 .00019109 00000+0 43496-3 0 9992 2 61753 97.3222 223.5027 0006987 200.6479 159.4488 15.42981886109964 HORS 4 (RS82S) 1 61754U 24199V 25354.91136170 .00021787 00000+0 46614-3 0 9993 2 61754 97.3203 223.9401 0007091 198.3250 161.7744 15.44796456109994 HORIZON (RS59S) 1 61757U 24199Y 25354.92285766 .00044376 00000+0 67128-3 0 9995 2 61757 97.3210 226.1674 0006492 174.4342 185.6985 15.54544126110139 ARCTICSAT 1 (RS74S) 1 61762U 24199AD 25354.92718065 .00039142 00000+0 62810-3 0 9992 2 61762 97.3219 226.0062 0006787 171.4019 188.7352 15.52933979110126 SIT-2086 1 61764U 24199AF 25354.92381109 .00023821 00000+0 53864-3 0 9995 2 61764 97.3220 224.2602 0007083 189.9920 170.1188 15.43134492106855 MORDOVIA-IOT (RS50S) 1 61765U 24199AG 25354.29412977 .00130600 00000+0 10022-2 0 9996 2 61765 97.3107 228.2534 0005160 140.8918 219.2719 15.71661909107074 RUZAEVKA 390 (RS44S) 1 61766U 24199AH 25354.94786250 .00076029 00000+0 82755-3 0 9994 2 61766 97.3162 227.8460 0005187 152.8843 207.2688 15.63176616107101 HYPERVIEW 1G (RS66S) 1 61772U 24199AP 25354.95138391 .00031409 00000+0 59093-3 0 9991 2 61772 97.3199 224.4926 0008395 200.3218 159.7700 15.48461098106881 ALTAIR (RS65S) 1 61779U 24199AW 25354.90005829 .00007356 00000+0 23314-3 0 9993 2 61779 97.3254 220.6139 0012682 221.3299 138.6985 15.32934903109764 ASRTU-1 (AO-123) 1 61781U 24199AY 25354.90231808 .00007281 00000+0 23675-3 0 9991 2 61781 97.3241 220.2636 0013159 222.8504 137.1714 15.32108836106596 TUSUR GO (RS78S) 1 61782U 24199AZ 25354.92692265 .00047620 00000+0 73651-3 0 9992 2 61782 97.3167 225.2503 0007259 193.7231 166.3826 15.53910616106935 SAMSAT-IONOSPHERE (RS7*) 1 61784U 24199BB 25354.91861838 .00021028 00000+0 47158-3 0 9994 2 61784 97.3216 223.2128 0010202 208.7876 151.2810 15.43377032109945 RTU MIREA 1 (RS51S) 1 61785U 24199BC 25354.92948875 .00023835 00000+0 51312-3 0 9998 2 61785 97.3212 223.4917 0009845 205.8460 154.2298 15.44569930106815 HADES-R 1 62690U 25009CK 25353.50180803 .00139512 00000+0 16338-2 0 9995 2 62690 97.3864 76.3943 0001149 263.7674 96.3452 15.61075237 51837 TEVEL2-4 1 63213U 25052D 25354.64418270 .00011884 00000+0 44642-3 0 9994 2 63213 97.4108 246.4193 0004640 46.1717 313.9905 15.27325528 42797 TEVEL2-5 1 63214U 25052E 25354.65003458 .00011839 00000+0 44578-3 0 9992 2 63214 97.4105 246.4115 0004617 46.5306 313.6316 15.27248696 42794 TEVEL2-6 1 63215U 25052F 25354.65758705 .00011989 00000+0 45204-3 0 9998 2 63215 97.4107 246.4071 0004690 45.6743 314.4879 15.27201298 42794 TEVEL2-1 1 63217U 25052H 25354.43983044 .00011877 00000+0 45242-3 0 9990 2 63217 97.4081 245.9953 0005130 55.2100 304.9621 15.26862229 42755 TEVEL2-3 1 63218U 25052J 25354.17677809 .00011888 00000+0 45259-3 0 9991 2 63218 97.4083 245.7401 0005163 55.8382 304.3346 15.26878860 42710 TEVEL2-2 1 63219U 25052K 25354.44059172 .00012253 00000+0 46660-3 0 9993 2 63219 97.4083 245.9965 0005102 55.6601 304.5120 15.26864733 42753 TEVEL2-9 1 63237U 25052AD 25354.93603608 .00010836 00000+0 43171-3 0 9995 2 63237 97.4142 246.1831 0009072 59.2607 300.9523 15.25362527 42794 TEVEL2-7 1 63238U 25052AE 25354.42591503 .00010646 00000+0 42628-3 0 9995 2 63238 97.4148 245.6501 0009235 60.9778 299.2385 15.25196284 42711 TEVEL2-8 1 63239U 25052AF 25354.95654772 .00010406 00000+0 41694-3 0 9998 2 63239 97.4144 246.1601 0009205 59.5314 300.6832 15.25181627 42799 HADES-ICM 1 63492U 25052BN 25354.49448221 .00044730 00000+0 11053-2 0 9990 2 63492 97.4083 248.1003 0011190 53.4081 306.8193 15.40288790 42895 INNOSAT 16 (RS92S7) 1 64878U 25155C 25354.89959522 .00003174 00000+0 13845-3 0 9997 2 64878 97.4343 318.1848 0013072 92.3930 267.8803 15.22819407 53514 GEOSCAN 6 (RS92S6) 1 64879U 25155D 25354.93966906 .00008052 00000+0 31840-3 0 9992 2 64879 97.4346 318.6074 0010762 87.6415 272.6056 15.25689626 53540 GEOSCAN 1 (RS92S1) 1 64880U 25155E 25354.92796034 .00009436 00000+0 36949-3 0 9998 2 64880 97.4346 318.6288 0010702 88.0556 272.1908 15.25965324 53547 239ALFEROV (RS61S) 1 64881U 25155F 25354.95020590 .00009983 00000+0 38022-3 0 9990 2 64881 97.4357 318.7730 0010539 87.9428 272.3017 15.26873389 53551 GEOSCAN 2 (RS92S2) 1 64890U 25155Q 25354.95636355 .00008017 00000+0 31141-3 0 9994 2 64890 97.4345 318.7317 0009938 77.8036 282.4315 15.26293311 53557 GEOSCAN 5 (RS92S5) 1 64891U 25155R 25354.91266782 .00010556 00000+0 39775-3 0 9996 2 64891 97.4349 318.8002 0009230 92.8182 267.4114 15.27228466 53558 GEOSCAN 4 (RS92S4) 1 64892U 25155S 25354.90938732 .00010565 00000+0 39721-3 0 9998 2 64892 97.4351 318.8083 0009267 93.3973 266.8327 15.27299955 53555 GEOSCAN 3 (RS92S3) 1 64893U 25155T 25354.94069708 .00011965 00000+0 43899-3 0 9997 2 64893 97.4346 318.9128 0009111 94.8713 265.3567 15.28074483 53566 INNOSAT 3 (RS92S0) 1 64894U 25155U 25354.90488886 .00019060 00000+0 64334-3 0 9997 2 64894 97.4330 319.1001 0009111 95.5242 264.7038 15.30694074 53572